Location: Hylvaty SDH
(49.9612°N, 16.4057°E)
Time: 01:07:43
(UTC+02:00)

Transit 2A Rocket - All Passes

Search period start: 12 August 2020 00:00
Search period end: 22 August 2020 00:00
Orbit: 584 x 919 km, 66.7° (Epoch: 11 August)

Date Brightness Start Highest point End Pass type
(mag) Time Alt. Az. Time Alt. Az. Time Alt. Az.
12 Aug - 04:53:08 10° S 04:58:29 39° ESE 05:04:07 10° NE visible
12 Aug - 06:35:16 10° WSW 06:41:04 53° NW 06:47:05 10° NNE daylight
12 Aug - 08:20:34 10° WNW 08:25:07 21° NNW 08:29:43 10° NNE daylight
12 Aug - 10:06:19 10° NW 10:10:06 16° N 10:13:50 10° NE daylight
12 Aug - 11:49:44 10° NNW 11:54:53 27° NNE 11:59:49 10° E daylight
12 Aug - 13:32:20 10° NW 13:38:27 82° NE 13:44:10 10° SE daylight
12 Aug - 15:15:59 10° WNW 15:20:25 22° WSW 15:24:37 10° SSW daylight
13 Aug - 04:11:32 10° SSE 04:16:12 26° ESE 04:21:05 10° NE visible
13 Aug - 05:52:25 10° SW 05:58:19 74° NW 06:04:31 10° NE daylight
13 Aug - 07:37:02 10° W 07:42:01 26° NNW 07:47:05 10° NNE daylight
13 Aug - 09:23:05 10° NW 09:26:50 16° N 09:30:34 10° NE daylight
13 Aug - 11:07:06 10° NNW 11:11:47 22° NNE 11:16:20 10° ENE daylight
13 Aug - 12:49:44 10° NNW 12:55:46 57° NE 13:01:24 10° SE daylight
13 Aug - 14:32:51 10° NW 14:38:10 34° WSW 14:43:10 10° S daylight
14 Aug - 03:30:35 10° SE 03:34:02 16° ESE 03:37:36 10° ENE visible
14 Aug - 05:09:51 10° SSW 05:15:43 77° ESE 05:21:53 10° NE daylight
14 Aug - 06:53:38 10° W 06:59:00 32° NW 07:04:29 10° NNE daylight
14 Aug - 08:39:39 10° NW 08:43:35 17° N 08:47:32 10° NNE daylight
14 Aug - 10:24:23 10° NNW 10:28:37 19° NNE 10:32:46 10° ENE daylight
14 Aug - 12:07:11 10° NNW 12:12:57 41° NE 12:18:23 10° ESE daylight
14 Aug - 13:49:58 10° NW 13:55:49 52° WSW 14:01:15 10° SSE daylight
15 Aug - 04:27:35 10° SSW 04:33:14 52° ESE 04:39:10 10° NE visible
15 Aug - 06:10:25 10° WSW 06:16:05 43° NW 06:21:56 10° NNE daylight
15 Aug - 07:56:05 10° WNW 08:00:22 19° NNW 08:04:41 10° NNE daylight
15 Aug - 09:41:30 10° NNW 09:45:24 17° N 09:49:14 10° NE daylight
15 Aug - 11:24:37 10° NNW 11:30:01 31° NNE 11:35:10 10° E daylight
15 Aug - 13:07:15 10° NW 13:13:20 79° WSW 13:18:58 10° SSE daylight
15 Aug - 14:51:33 10° WNW 14:54:58 16° WSW 14:58:17 10° SW daylight
16 Aug - 03:45:40 10° S 03:50:52 34° ESE 03:56:18 10° NE visible
16 Aug - 05:27:24 10° SW 05:33:16 59° NW 05:39:23 10° NNE daylight
16 Aug - 07:12:30 10° WNW 07:17:13 23° NNW 07:21:58 10° NNE daylight
16 Aug - 08:58:25 10° NW 09:02:09 16° N 09:05:50 10° NE daylight
16 Aug - 10:42:02 10° NNW 10:46:59 25° NNE 10:51:46 10° E daylight
16 Aug - 12:24:37 10° NW 12:30:43 72° NE 12:36:23 10° SE daylight
16 Aug - 14:08:03 10° NW 14:12:49 25° WSW 14:17:20 10° SSW daylight
17 Aug - 03:04:15 10° SSE 03:08:37 22° ESE 03:13:09 10° ENE visible
17 Aug - 04:44:39 10° SW 04:50:36 84° NW 04:56:48 10° NE visible
17 Aug - 06:29:00 10° W 06:34:08 28° NNW 06:39:21 10° NNE daylight
17 Aug - 08:15:05 10° NW 08:18:53 16° N 08:22:39 10° NNE daylight
17 Aug - 09:59:22 10° NNW 10:03:52 21° NNE 10:08:14 10° ENE daylight
17 Aug - 11:42:03 10° NNW 11:47:58 51° NE 11:53:32 10° ESE daylight
17 Aug - 13:25:01 10° NW 13:30:33 39° WSW 13:35:42 10° S daylight
18 Aug - 02:23:41 10° SE 02:26:30 14° E 02:29:22 10° ENE visible
18 Aug - 04:02:11 10° SSW 04:08:01 68° ESE 04:14:09 10° NE visible
18 Aug - 05:45:39 10° WSW 05:51:10 36° NW 05:56:48 10° NNE daylight
18 Aug - 07:31:35 10° NW 07:35:38 18° NNW 07:39:41 10° NNE daylight
18 Aug - 09:16:36 10° NNW 09:20:41 18° NNE 09:24:41 10° NE daylight
18 Aug - 10:59:29 10° NNW 11:05:07 37° NE 11:10:27 10° ESE daylight
18 Aug - 12:42:13 10° NW 12:48:09 61° WSW 12:53:38 10° SSE daylight
18 Aug - 14:27:52 10° W 14:29:30 11° W 14:31:05 10° WSW daylight
19 Aug - 03:20:01 10° S 03:25:35 45° ESE 03:31:23 10° NE visible
19 Aug - 05:02:30 10° WSW 05:08:17 48° NW 05:14:15 10° NNE visible
19 Aug - 06:48:00 10° WNW 06:52:27 20° NNW 06:56:54 10° NNE daylight
19 Aug - 08:33:39 10° NNW 08:37:27 17° N 08:41:12 10° NE daylight
19 Aug - 10:16:56 10° NNW 10:22:09 29° NNE 10:27:09 10° E daylight
19 Aug - 11:59:32 10° NW 12:05:37 90° SW 12:11:15 10° SE daylight
19 Aug - 13:43:28 10° WNW 13:47:25 19° WSW 13:51:12 10° SSW daylight
20 Aug - 02:38:16 10° SSE 02:43:15 29° ESE 02:48:25 10° NE visible
20 Aug - 04:19:35 10° SW 04:25:31 67° NW 04:31:41 10° NE visible
20 Aug - 06:04:26 10° W 06:09:19 24° NNW 06:14:14 10° NNE daylight
20 Aug - 07:50:28 10° NW 07:54:11 16° N 07:57:52 10° NE daylight
20 Aug - 09:34:19 10° NNW 09:39:05 23° NNE 09:43:42 10° ENE daylight
20 Aug - 11:16:56 10° NNW 11:22:57 63° NE 11:28:34 10° SE daylight
20 Aug - 13:00:10 10° NW 13:05:13 29° WSW 13:09:57 10° SSW daylight
21 Aug - 01:57:04 10° SSE 02:01:03 19° ESE 02:05:08 10° ENE visible
21 Aug - 03:36:56 10° SSW 03:42:53 86° ESE 03:49:05 10° NE visible
21 Aug - 05:20:59 10° W 05:26:17 30° NNW 05:31:39 10° NNE visible
21 Aug - 07:07:04 10° NW 07:10:56 17° N 07:14:46 10° NNE daylight
21 Aug - 08:51:37 10° NNW 08:55:57 19° NNE 09:00:10 10° ENE daylight
21 Aug - 10:34:21 10° NNW 10:40:10 45° NE 10:45:37 10° ESE daylight
21 Aug - 12:17:14 10° NW 12:22:54 46° WSW 12:28:09 10° S daylight
